This is the latest recevied weather packets stored in our database for station/object N5GMJ. If no packets are shown the sender has not sent any weather packets the latest 1 day(s).
| Time | Temp. | Humidity | Pressure | Rain* | Wind** | Luminosity | Snow |
|---|---|---|---|---|---|---|---|
| 1777986485 | 21.67° C | 84% | 1005 hPa | 0 mm | 1.79 m/s, 203° | - | - |
| 1777986186 | 21.67° C | 84% | 1005.2 hPa | 0 mm | 0.45 m/s, 71° | - | - |
| 1777985880 | 21.11° C | 85% | 1005 hPa | 0 mm | 1.79 m/s, 208° | - | - |
| 1777985578 | 21.11° C | 85% | 1005 hPa | 0 mm | 0.45 m/s, 331° | - | - |
| 1777985274 | 21.11° C | 85% | 1005 hPa | 0 mm | 0.45 m/s, 78° | - | - |
| 1777984971 | 21.11° C | 85% | 1004.8 hPa | 0 mm | 0.89 m/s, 176° | - | - |
| 1777984666 | 21.11° C | 86% | 1004.8 hPa | 0 mm | 1.34 m/s, 185° | - | - |
| 1777984363 | 20.56° C | 86% | 1004.7 hPa | 0 mm | 1.34 m/s, 89° | - | - |
| 1777984060 | 20.56° C | 86% | 1004.6 hPa | 0 mm | 0.89 m/s, 290° | - | - |
| 1777983757 | 20.56° C | 86% | 1004.5 hPa | 0 mm | 0.89 m/s, 91° | - | - |
| 1777983454 | 20.56° C | 86% | 1004.4 hPa | 0 mm | 0.89 m/s, 228° | - | - |
| 1777983150 | 20.56° C | 86% | 1004.4 hPa | 0 mm | 0.89 m/s, 286° | - | - |
| 1777982847 | 20.56° C | 86% | 1004.4 hPa | 0 mm | 0.45 m/s, 300° | - | - |
| 1777982543 | 20.56° C | 86% | 1004.4 hPa | 0 mm | 1.34 m/s, 138° | - | - |
| 1777982241 | 20.56° C | 86% | 1004.6 hPa | 0 mm | 2.24 m/s, 320° | - | - |
| 1777981940 | 20.56° C | 86% | 1004.4 hPa | 0 mm | 0.45 m/s, 191° | - | - |
| 1777981637 | 20.56° C | 86% | 1004.4 hPa | 0 mm | 0.89 m/s, 123° | - | - |
| 1777981332 | 20.56° C | 86% | 1004.1 hPa | 0 mm | 0.89 m/s, 196° | - | - |
| 1777981029 | 20.56° C | 85% | 1004.4 hPa | 0 mm | 0.45 m/s, 110° | - | - |
| 1777980726 | 20.56° C | 86% | 1004.2 hPa | 0 mm | 0.89 m/s, 214° | - | - |
| 1777980422 | 20.56° C | 85% | 1004.3 hPa | 0 mm | 1.79 m/s, 155° | - | - |
| 1777980120 | 20.56° C | 85% | 1004 hPa | 0 mm | 1.34 m/s, 250° | - | - |
| 1777979819 | 20.56° C | 85% | 1004.2 hPa | 0 mm | 0.45 m/s, 133° | - | - |
| 1777979515 | 20.56° C | 85% | 1004 hPa | 0 mm | 0.89 m/s, 115° | - | - |
| 1777979212 | 20.56° C | 85% | 1004.1 hPa | 0 mm | 0.89 m/s, 233° | - | - |
* Rain latest hour (hover to see other rain measurements)
** Current wind speed in m/s (hover to see current wind gust speed)